Home   Weather   Kansas City   Past weeks
Flag for USA

Past Weather in Kansas City, Missouri, USA — Yesterday and Last 2 Weeks

Now
36 °F

Overcast.


Feels Like: 28 °F
Forecast: 33 / 45 °F
Wind: 10 mph from North

Location: Kansas City Downtown Airport

Current Time: Dec 14, 2018 at 1:46:27 am

Latest Report: Dec 14, 2018 at 12:54 am


Visibility: 8 mi

Pressure: 30.13 "Hg

Humidity: 79%

Dew Point: 30 °F

Location of Kansas CityLocation

Past Weather in Kansas City — Graph

°F

Kansas City Temperature Yesterday

Maximum temperature yesterday: 48 °F (at 12:54 am)
Minimum temperature yesterday: 37 °F (at 11:54 pm)
Average temperature yesterday: 43 °F

High & Low Weather Summary for the Past Weeks

 TemperatureHumidityPressure
High57 °F (Dec 11, 1:54 pm)93% (Nov 30, 2:32 pm)30.58 "Hg (Nov 30, 2:32 pm)
Low18 °F (Dec 9, 5:54 am)36% (Dec 5, 1:54 pm)29.15 "Hg (Dec 1, 11:58 am)
Average36 °F72%30.03 "Hg
* Reported Nov 28 11:54 pm — Dec 13 11:54 pm, Kansas City. Weather by CustomWeather, © 2018

Note: Actual official high and low records may vary slightly from our data, if they occured in-between our weather recording intervals... More about our weather records

Advertising

Kansas City Weather History for the Previous 24 Hours

Scroll right to see more
 ConditionsComfort  
Time TempWeatherWind HumidityBarometerVisibility
11:54 pm
Thu, Dec 13
37 °FOvercast.10 mph76%30.12 "Hg9 mi
10:54 pm38 °FOvercast.9 mph76%30.11 "Hg10 mi
9:54 pm39 °FOvercast.10 mph76%30.09 "Hg10 mi
8:54 pm39 °FOvercast.9 mph79%30.09 "Hg10 mi
7:54 pm39 °FOvercast.9 mph79%30.07 "Hg10 mi
6:54 pm39 °FOvercast.5 mph76%30.06 "Hg10 mi
5:54 pm39 °FOvercast.12 mph76%30.05 "Hg10 mi
4:54 pm40 °FOvercast.9 mph77%30.01 "Hg10 mi
3:54 pm41 °FOvercast.9 mph76%29.98 "Hg9 mi
2:54 pm41 °FOvercast.12 mph80%29.95 "Hg10 mi
1:54 pm42 °FOvercast.7 mph79%29.93 "Hg10 mi
12:54 pm46 °FOvercast.7 mph77%29.92 "Hg9 mi
12:24 pm46 °FOvercast.3 mph73%29.91 "Hg10 mi
11:54 am45 °FOvercast.5 mph76%29.91 "Hg10 mi
10:54 am45 °FOvercast.7 mph76%29.91 "Hg10 mi
9:54 am45 °FCloudy.3 mph74%29.90 "Hg10 mi
9:40 am45 °FCloudy.No wind74%29.90 "Hg10 mi
9:07 am43 °FMostly cloudy.No wind86%29.89 "Hg9 mi
8:54 am43 °FMostly cloudy.No wind82%29.88 "Hg8 mi
8:23 am44 °FOvercast.3 mph76%29.86 "Hg10 mi
8:08 am43 °FOvercast.5 mph76%29.86 "Hg10 mi
7:23 am44 °FMostly cloudy.3 mph71%29.85 "Hg8 mi
6:54 am44 °FLow clouds.3 mph71%29.84 "Hg10 mi
6:25 am44 °FMostly cloudy.3 mph68%29.83 "Hg10 mi
6:09 am44 °FMostly cloudy.3 mph71%29.82 "Hg10 mi
5:54 am44 °FMostly cloudy.5 mph68%29.82 "Hg10 mi
4:54 am43 °FMostly cloudy.3 mph71%29.80 "Hg9 mi
3:54 am44 °FOvercast.6 mph65%29.81 "Hg10 mi
3:22 am44 °FMostly cloudy.3 mph65%29.81 "Hg9 mi
2:54 am44 °FMostly cloudy.5 mph65%29.82 "Hg10 mi
1:54 am45 °FMostly cloudy.7 mph60%29.81 "Hg10 mi
Weather by CustomWeather, © 2018

See weather overview